Location: Ferques
(50.8300°N, 1.7599°E)
Time: 15:38:46
(UTC+00:00)

Cosmos 1782 - Pass Details

Date: 19 May 2025
Orbit: 478 x 490 km, 82.5° (Epoch: 17 June)

Event Time Altitude Azimuth Distance (km) Brightness Sun altitude
Rises 20:20:32 0° 196° (SSW) 2,559 6.0 -5.7°
Reaches altitude 10° 20:22:39 10° 199° (SSW) 1,681 5.1 -5.9°
Maximum altitude 20:26:18 65° 282° (WNW) 544 3.1 -6.3°
Drops below altitude 10° 20:29:59 10° 5° (N) 1,689 5.9 -6.8°
Sets 20:32:07 0° 8° (N) 2,573 6.8 -7.0°
